AAL2610 KDCA-KPWM

Flight info

Callsign AAL2610
Flight time 1h 8m
Altitude 37000
Route SOOKI6 SWANN BROSS Q419 RBV Q22 LLUND BDR SCOGS3
Aircraft B738/M-SDE2E3FGHIRWXY/LB1

Departure

Time 2026-05-08 21:36
Airport Ronald Reagan Washington National Airport (KDCA)

Arrival

Time 2026-05-08 22:45
Airport Portland International Jetport (KPWM)
Time Latitude Longitude Altitude Speed Heading
2026-05-08 21:16 38.85440 -77.04234 29 ft 0 kts 163°
2026-05-08 21:29 38.85446 -77.04236 29 ft 2 kts 163°
2026-05-08 21:29 38.85461 -77.04242 29 ft 2 kts 162°
2026-05-08 21:29 38.85474 -77.04247 29 ft 0 kts 163°
2026-05-08 21:29 38.85484 -77.04253 29 ft 2 kts 133°
2026-05-08 21:30 38.85491 -77.04269 29 ft 2 kts 93°
2026-05-08 21:30 38.85490 -77.04279 30 ft 0 kts 68°
2026-05-08 21:30 38.85488 -77.04286 30 ft 0 kts 71°
2026-05-08 21:32 38.85501 -77.04233 29 ft 10 kts 72°
2026-05-08 21:33 38.85525 -77.04134 26 ft 11 kts 73°
2026-05-08 21:33 38.85559 -77.04045 24 ft 12 kts 34°
2026-05-08 21:33 38.85646 -77.04041 22 ft 13 kts 354°
2026-05-08 21:33 38.85741 -77.04053 21 ft 13 kts 354°
2026-05-08 21:34 38.85836 -77.04060 21 ft 13 kts 356°
2026-05-08 21:34 38.85905 -77.04060 20 ft 6 kts 26°
2026-05-08 21:34 38.85936 -77.03999 19 ft 10 kts 61°
2026-05-08 21:34 38.86002 -77.03953 18 ft 11 kts 16°
2026-05-08 21:35 38.86077 -77.03914 17 ft 8 kts 35°
2026-05-08 21:35 38.86087 -77.03889 16 ft 3 kts 102°
2026-05-08 21:35 38.86068 -77.03873 16 ft 4 kts 167°
2026-05-08 21:35 38.86037 -77.03867 17 ft 8 kts 174°
2026-05-08 21:36 38.85736 -77.03838 20 ft 81 kts 175°
2026-05-08 21:36 38.84940 -77.03756 21 ft 145 kts 174°
2026-05-08 21:36 38.83815 -77.03635 389 ft 167 kts 179°
2026-05-08 21:36 38.82661 -77.03523 1079 ft 174 kts 176°
2026-05-08 21:37 38.81462 -77.03249 1820 ft 178 kts 172°
2026-05-08 21:37 38.80246 -77.02928 2450 ft 188 kts 173°
2026-05-08 21:37 38.78927 -77.02647 3042 ft 200 kts 175°
2026-05-08 21:37 38.77480 -77.02295 3584 ft 221 kts 167°
2026-05-08 21:38 38.76106 -77.01304 4144 ft 246 kts 135°
2026-05-08 21:38 38.75271 -76.99348 4813 ft 264 kts 103°
2026-05-08 21:38 38.75098 -76.96964 5478 ft 278 kts 91°
2026-05-08 21:38 38.75220 -76.94441 6181 ft 291 kts 77°
2026-05-08 21:39 38.75974 -76.92039 6996 ft 297 kts 55°
2026-05-08 21:39 38.77296 -76.90070 7980 ft 294 kts 37°
2026-05-08 21:39 38.78972 -76.88581 8876 ft 295 kts 26°
2026-05-08 21:39 38.80732 -76.87280 9793 ft 297 kts 25°
2026-05-08 21:40 38.82529 -76.85963 10624 ft 303 kts 25°
2026-05-08 21:40 38.84392 -76.84566 11211 ft 317 kts 25°
2026-05-08 21:40 38.86287 -76.83070 11792 ft 332 kts 29°
2026-05-08 21:41 38.90005 -76.79119 12899 ft 364 kts 36°
2026-05-08 21:41 38.91916 -76.76847 13429 ft 379 kts 37°
2026-05-08 21:41 38.93872 -76.74509 13994 ft 390 kts 36°
2026-05-08 21:41 38.95885 -76.72119 14648 ft 399 kts 36°
2026-05-08 21:42 38.97947 -76.69689 15389 ft 405 kts 35°
2026-05-08 21:42 39.00024 -76.67258 16083 ft 411 kts 35°
2026-05-08 21:42 39.02143 -76.64761 16776 ft 418 kts 36°
2026-05-08 21:42 39.04271 -76.62135 17411 ft 426 kts 37°
2026-05-08 21:43 39.06368 -76.59457 18059 ft 433 kts 37°
2026-05-08 21:43 39.08490 -76.56650 18704 ft 442 kts 40°
2026-05-08 21:43 39.10342 -76.53407 19401 ft 457 kts 52°
2026-05-08 21:43 39.11794 -76.49695 19987 ft 472 kts 62°
2026-05-08 21:44 39.12801 -76.45696 20696 ft 480 kts 70°
2026-05-08 21:44 39.13511 -76.41428 21273 ft 490 kts 76°
2026-05-08 21:44 39.14031 -76.37112 21811 ft 497 kts 78°
2026-05-08 21:44 39.14472 -76.32662 22402 ft 503 kts 80°
2026-05-08 21:45 39.14880 -76.28220 22921 ft 509 kts 80°
2026-05-08 21:45 39.15297 -76.23687 23446 ft 514 kts 80°
2026-05-08 21:45 39.15734 -76.19086 24023 ft 518 kts 79°
2026-05-08 21:45 39.16195 -76.14509 24576 ft 522 kts 79°
2026-05-08 21:46 39.16682 -76.09877 25094 ft 526 kts 78°
2026-05-08 21:46 39.17198 -76.05154 25460 ft 534 kts 78°
2026-05-08 21:46 39.17721 -76.00485 26003 ft 536 kts 77°
2026-05-08 21:46 39.18422 -75.95785 26360 ft 539 kts 72°
2026-05-08 21:47 39.19521 -75.91204 26946 ft 534 kts 63°
2026-05-08 21:47 39.21078 -75.86889 27540 ft 526 kts 54°
2026-05-08 21:47 39.23036 -75.82986 28178 ft 515 kts 44°
2026-05-08 21:47 39.25340 -75.79561 28843 ft 501 kts 35°
2026-05-08 21:48 39.27909 -75.76587 29471 ft 491 kts 28°
2026-05-08 21:48 39.30593 -75.73901 29961 ft 488 kts 26°
2026-05-08 21:48 39.33304 -75.71335 30489 ft 487 kts 24°
2026-05-08 21:48 39.36057 -75.68726 31082 ft 485 kts 25°
2026-05-08 21:49 39.38712 -75.66136 31667 ft 484 kts 25°
2026-05-08 21:49 39.41387 -75.63442 32115 ft 486 kts 26°
2026-05-08 21:49 39.44019 -75.60718 32404 ft 492 kts 27°
2026-05-08 21:49 39.46658 -75.57910 32878 ft 492 kts 27°
2026-05-08 21:50 39.49272 -75.55074 33401 ft 490 kts 28°
2026-05-08 21:50 39.51875 -75.52222 33789 ft 492 kts 28°
2026-05-08 21:50 39.54463 -75.49367 34185 ft 491 kts 28°
2026-05-08 21:50 39.57054 -75.46500 34484 ft 493 kts 28°
2026-05-08 21:51 39.59650 -75.43626 34782 ft 494 kts 28°
2026-05-08 21:51 39.62278 -75.40710 35122 ft 494 kts 28°
2026-05-08 21:51 39.64856 -75.37844 35507 ft 492 kts 29°
2026-05-08 21:51 39.67468 -75.34942 35765 ft 494 kts 29°
2026-05-08 21:52 39.70081 -75.32038 35965 ft 497 kts 30°
2026-05-08 21:52 39.72702 -75.29121 36401 ft 495 kts 30°
2026-05-08 21:52 39.75325 -75.26199 36620 ft 498 kts 30°
2026-05-08 21:52 39.77947 -75.23230 36789 ft 503 kts 32°
2026-05-08 21:53 39.80440 -75.20104 36932 ft 507 kts 36°
2026-05-08 21:53 39.82893 -75.16728 36932 ft 509 kts 38°
2026-05-08 21:53 39.87539 -75.09837 36935 ft 509 kts 40°
2026-05-08 21:54 39.92099 -75.02891 36933 ft 511 kts 40°
2026-05-08 21:54 39.96679 -74.95825 36926 ft 511 kts 43°
2026-05-08 21:55 40.00875 -74.88265 36929 ft 516 kts 47°
2026-05-08 21:56 40.06744 -74.76547 36922 ft 519 kts 49°
2026-05-08 21:56 40.10675 -74.68620 36914 ft 520 kts 49°
2026-05-08 21:57 40.14595 -74.60779 36927 ft 518 kts 49°
2026-05-08 21:57 40.18670 -74.53004 36925 ft 515 kts 44°
2026-05-08 21:57 40.20908 -74.49481 36928 ft 504 kts 38°
2026-05-08 21:58 40.23345 -74.46253 36918 ft 499 kts 33°
2026-05-08 21:58 40.28564 -74.40303 36924 ft 491 kts 28°
2026-05-08 21:59 40.33866 -74.34718 36935 ft 491 kts 28°
2026-05-08 21:59 40.39206 -74.29141 36926 ft 495 kts 29°
2026-05-08 22:00 40.44523 -74.23518 36931 ft 492 kts 29°
2026-05-08 22:00 40.49813 -74.17860 37089 ft 493 kts 29°
2026-05-08 22:00 40.52473 -74.15001 36949 ft 493 kts 30°
2026-05-08 22:01 40.55107 -74.12157 36936 ft 490 kts 30°
2026-05-08 22:01 40.60357 -74.06475 36934 ft 490 kts 30°
2026-05-08 22:02 40.65614 -74.00779 36934 ft 490 kts 30°
2026-05-08 22:02 40.70858 -73.95086 36936 ft 489 kts 30°
2026-05-08 22:03 40.76111 -73.89370 36936 ft 489 kts 30°
2026-05-08 22:03 40.81343 -73.83666 36935 ft 490 kts 30°
2026-05-08 22:04 40.86298 -73.77348 36935 ft 504 kts 41°
2026-05-08 22:04 40.90420 -73.69828 36935 ft 512 kts 50°
2026-05-08 22:05 40.94113 -73.61770 36932 ft 512 kts 52°
2026-05-08 22:05 40.97697 -73.53605 36930 ft 513 kts 53°
2026-05-08 22:06 41.01277 -73.45491 36927 ft 514 kts 52°
2026-05-08 22:06 41.04900 -73.37370 36927 ft 511 kts 52°
2026-05-08 22:07 41.08525 -73.29297 36919 ft 512 kts 53°
2026-05-08 22:07 41.12165 -73.21204 36919 ft 512 kts 53°
2026-05-08 22:08 41.15799 -73.13111 36924 ft 511 kts 53°
2026-05-08 22:08 41.19461 -73.05115 36928 ft 509 kts 52°
2026-05-08 22:09 41.23235 -72.97119 36931 ft 509 kts 51°
2026-05-08 22:09 41.27003 -72.89166 36930 ft 510 kts 51°
2026-05-08 22:10 41.30755 -72.81197 36928 ft 509 kts 51°
2026-05-08 22:10 41.34477 -72.73235 36930 ft 508 kts 52°
2026-05-08 22:11 41.38186 -72.65266 36928 ft 508 kts 51°
2026-05-08 22:11 41.41877 -72.57308 36924 ft 507 kts 52°
2026-05-08 22:12 41.45555 -72.49358 36922 ft 508 kts 52°
2026-05-08 22:12 41.49258 -72.41333 36919 ft 507 kts 52°
2026-05-08 22:13 41.52917 -72.33382 36914 ft 507 kts 53°
2026-05-08 22:13 41.56583 -72.25392 36918 ft 506 kts 53°
2026-05-08 22:14 41.60257 -72.17365 36917 ft 507 kts 53°
2026-05-08 22:14 41.63913 -72.09355 36925 ft 505 kts 53°
2026-05-08 22:15 41.67573 -72.01321 36919 ft 506 kts 53°
2026-05-08 22:15 41.71215 -71.93298 36922 ft 506 kts 53°
2026-05-08 22:16 41.74831 -71.85315 36921 ft 506 kts 53°
2026-05-08 22:16 41.78468 -71.77264 36912 ft 505 kts 53°
2026-05-08 22:17 41.82086 -71.69237 36917 ft 508 kts 53°
2026-05-08 22:17 41.85622 -71.61063 36917 ft 508 kts 56°
2026-05-08 22:18 41.88757 -71.52619 36910 ft 510 kts 59°
2026-05-08 22:18 41.91772 -71.44001 36912 ft 510 kts 60°
2026-05-08 22:19 41.94782 -71.35369 36908 ft 509 kts 59°
2026-05-08 22:19 41.97797 -71.26798 36662 ft 508 kts 60°
2026-05-08 22:19 41.99300 -71.22543 36254 ft 504 kts 60°
2026-05-08 22:20 42.00798 -71.18314 35712 ft 504 kts 59°
2026-05-08 22:20 42.02299 -71.14087 35076 ft 507 kts 59°
2026-05-08 22:20 42.03825 -71.09792 34369 ft 511 kts 59°
2026-05-08 22:20 42.05342 -71.05526 33632 ft 515 kts 59°
2026-05-08 22:21 42.07001 -71.01260 32967 ft 513 kts 53°
2026-05-08 22:21 42.08960 -70.97386 32742 ft 492 kts 43°
2026-05-08 22:21 42.11315 -70.94225 32384 ft 469 kts 30°
2026-05-08 22:21 42.13955 -70.91798 31852 ft 451 kts 20°
2026-05-08 22:22 42.16693 -70.89983 31231 ft 439 kts 13°
2026-05-08 22:22 42.19488 -70.88468 30724 ft 429 kts 10°
2026-05-08 22:22 42.22255 -70.87108 30183 ft 421 kts
2026-05-08 22:22 42.25012 -70.85825 29554 ft 416 kts
2026-05-08 22:23 42.27727 -70.84589 28902 ft 412 kts
2026-05-08 22:23 42.30447 -70.83356 28237 ft 407 kts
2026-05-08 22:23 42.33075 -70.82156 27743 ft 399 kts
2026-05-08 22:23 42.35695 -70.80947 27258 ft 391 kts
2026-05-08 22:24 42.38240 -70.79764 26786 ft 383 kts
2026-05-08 22:24 42.40741 -70.78599 26343 ft 378 kts
2026-05-08 22:24 42.43210 -70.77448 25884 ft 374 kts
2026-05-08 22:24 42.45626 -70.76261 25448 ft 372 kts 10°
2026-05-08 22:25 42.48037 -70.74974 24980 ft 370 kts 11°
2026-05-08 22:25 42.50397 -70.73666 24531 ft 366 kts 12°
2026-05-08 22:25 42.52716 -70.72364 24109 ft 363 kts 12°
2026-05-08 22:25 42.55035 -70.71063 23663 ft 359 kts 12°
2026-05-08 22:26 42.57334 -70.69780 23233 ft 356 kts 12°
2026-05-08 22:26 42.59617 -70.68515 22792 ft 360 kts 12°
2026-05-08 22:26 42.61984 -70.67225 22364 ft 374 kts 12°
2026-05-08 22:26 42.64417 -70.65896 21866 ft 375 kts 13°
2026-05-08 22:27 42.66821 -70.64566 21398 ft 371 kts 14°
2026-05-08 22:27 42.69176 -70.63223 20947 ft 369 kts 15°
2026-05-08 22:27 42.71494 -70.61800 20481 ft 366 kts 17°
2026-05-08 22:27 42.73770 -70.60352 20031 ft 363 kts 17°
2026-05-08 22:28 42.76069 -70.58873 19541 ft 360 kts 18°
2026-05-08 22:28 42.78311 -70.57435 19084 ft 357 kts 18°
2026-05-08 22:28 42.80539 -70.56010 18614 ft 354 kts 18°
2026-05-08 22:28 42.82767 -70.54588 18152 ft 351 kts 18°
2026-05-08 22:29 42.84943 -70.53207 17706 ft 347 kts 18°
2026-05-08 22:29 42.87116 -70.51835 17237 ft 344 kts 18°
2026-05-08 22:29 42.89273 -70.50477 16880 ft 338 kts 18°
2026-05-08 22:29 42.91381 -70.49149 16460 ft 335 kts 18°
2026-05-08 22:30 42.93504 -70.47812 16019 ft 332 kts 19°
2026-05-08 22:30 42.95577 -70.46506 15587 ft 329 kts 19°
2026-05-08 22:30 42.97636 -70.45208 15139 ft 327 kts 19°
2026-05-08 22:30 42.99681 -70.43916 14698 ft 325 kts 19°
2026-05-08 22:31 43.01722 -70.42611 14262 ft 323 kts 20°
2026-05-08 22:31 43.03709 -70.41139 13811 ft 323 kts 25°
2026-05-08 22:31 43.05609 -70.39519 13404 ft 322 kts 27°
2026-05-08 22:31 43.07474 -70.37846 12969 ft 321 kts 28°
2026-05-08 22:32 43.09316 -70.36189 12539 ft 319 kts 28°
2026-05-08 22:32 43.11075 -70.34624 12135 ft 317 kts 28°
2026-05-08 22:32 43.12906 -70.33015 11720 ft 314 kts 28°
2026-05-08 22:32 43.14754 -70.31413 11296 ft 312 kts 28°
2026-05-08 22:33 43.16589 -70.29829 11000 ft 311 kts 27°
2026-05-08 22:33 43.18438 -70.28230 10990 ft 321 kts 28°
2026-05-08 22:33 43.20316 -70.26595 10991 ft 323 kts 28°
2026-05-08 22:33 43.22204 -70.24940 10725 ft 319 kts 28°
2026-05-08 22:34 43.24064 -70.23304 10396 ft 314 kts 28°
2026-05-08 22:34 43.25853 -70.21732 10224 ft 303 kts 28°
2026-05-08 22:34 43.27605 -70.20213 10132 ft 290 kts 28°
2026-05-08 22:34 43.29295 -70.18751 9929 ft 283 kts 28°
2026-05-08 22:35 43.30931 -70.17334 9544 ft 282 kts 28°
2026-05-08 22:35 43.32597 -70.15906 9149 ft 282 kts 27°
2026-05-08 22:35 43.34275 -70.14545 8783 ft 280 kts 26°
2026-05-08 22:35 43.35972 -70.13219 8438 ft 277 kts 25°
2026-05-08 22:36 43.37643 -70.11924 8098 ft 275 kts 25°
2026-05-08 22:36 43.39286 -70.10644 7764 ft 274 kts 26°
2026-05-08 22:36 43.40938 -70.09344 7422 ft 272 kts 26°
2026-05-08 22:36 43.42570 -70.08049 7082 ft 271 kts 26°
2026-05-08 22:37 43.44196 -70.06757 6748 ft 269 kts 26°
2026-05-08 22:37 43.45796 -70.05492 6416 ft 267 kts 26°
2026-05-08 22:37 43.47416 -70.04215 6087 ft 265 kts 26°
2026-05-08 22:37 43.48991 -70.02965 5748 ft 263 kts 26°
2026-05-08 22:38 43.50575 -70.01703 5428 ft 261 kts 27°
2026-05-08 22:38 43.52127 -70.00466 5110 ft 260 kts 27°
2026-05-08 22:38 43.53696 -69.99216 4785 ft 258 kts 27°
2026-05-08 22:38 43.55257 -69.98031 4462 ft 255 kts 21°
2026-05-08 22:39 43.56932 -69.97379 4214 ft 243 kts 358°
2026-05-08 22:39 43.58478 -69.97872 4138 ft 225 kts 330°
2026-05-08 22:39 43.59691 -69.99142 4065 ft 212 kts 313°
2026-05-08 22:39 43.60601 -70.00682 4000 ft 201 kts 304°
2026-05-08 22:40 43.61344 -70.02268 3938 ft 197 kts 302°
2026-05-08 22:40 43.62093 -70.03891 3705 ft 204 kts 303°
2026-05-08 22:40 43.62758 -70.05598 3480 ft 202 kts 289°
2026-05-08 22:40 43.62980 -70.07513 3211 ft 203 kts 273°
2026-05-08 22:41 43.62992 -70.09462 2946 ft 203 kts 274°
2026-05-08 22:41 43.63098 -70.11386 2716 ft 199 kts 278°
2026-05-08 22:41 43.63249 -70.13225 2484 ft 191 kts 278°
2026-05-08 22:41 43.63375 -70.14992 2191 ft 177 kts 277°
2026-05-08 22:42 43.63482 -70.16584 1965 ft 162 kts 278°
2026-05-08 22:42 43.63586 -70.18074 1763 ft 147 kts 278°
2026-05-08 22:42 43.63681 -70.19432 1570 ft 143 kts 278°
2026-05-08 22:42 43.63775 -70.20782 1345 ft 137 kts 278°
2026-05-08 22:43 43.63870 -70.22091 1165 ft 139 kts 278°
2026-05-08 22:43 43.63969 -70.23415 1006 ft 136 kts 278°
2026-05-08 22:43 43.64072 -70.24700 870 ft 136 kts 278°
2026-05-08 22:43 43.64160 -70.26022 659 ft 140 kts 276°
2026-05-08 22:44 43.64232 -70.27357 465 ft 139 kts 277°
2026-05-08 22:44 43.64324 -70.28672 244 ft 139 kts 278°
2026-05-08 22:44 43.64411 -70.29984 64 ft 138 kts 277°
2026-05-08 22:44 43.64485 -70.31100 62 ft 77 kts 275°
2026-05-08 22:45 43.64521 -70.31583 68 ft 40 kts 276°
2026-05-08 22:45 43.64546 -70.31934 67 ft 31 kts 274°
2026-05-08 22:45 43.64556 -70.32066 67 ft 6 kts 298°
2026-05-08 22:45 43.64590 -70.32090 67 ft 5 kts
2026-05-08 22:46 43.64628 -70.32084 67 ft 5 kts
2026-05-08 22:46 43.64648 -70.32071 67 ft 3 kts 49°
2026-05-08 22:46 43.64657 -70.32015 67 ft 8 kts 94°
2026-05-08 22:46 43.64652 -70.31938 68 ft 7 kts 96°
2026-05-08 22:47 43.64646 -70.31864 70 ft 7 kts 96°
2026-05-08 22:47 43.64641 -70.31785 70 ft 9 kts 96°
2026-05-08 22:47 43.64634 -70.31691 70 ft 9 kts 95°
2026-05-08 22:47 43.64629 -70.31598 70 ft 10 kts 94°
2026-05-08 22:48 43.64623 -70.31497 70 ft 10 kts 95°
2026-05-08 22:48 43.64620 -70.31394 68 ft 11 kts 72°
2026-05-08 22:48 43.64680 -70.31351 68 ft 5 kts
2026-05-08 22:48 43.64710 -70.31343 68 ft 3 kts 43°
2026-05-08 22:49 43.64724 -70.31312 68 ft 3 kts 63°
2026-05-08 22:49 43.64731 -70.31293 68 ft 0 kts 64°